[[{"header":{"parameterUnit":"m.s-1","parameterCategory":1,"la1":30.2991,"la2":30.254,"lo1":-89.0895,"lo2":-89.0444,"dy":0.0017,"dx":0.0017,"nx":28,"ny":28,"refTime":"2023-10-31T21:00:00:Z","depth":0,"parameterNumber":2,"parameterNumberName":"U-component_of_WINDS"},"data":[0,0,0,0,0,0,0,0,0,0,0,0,0,0,0,0,0,0,0,0,0,0,0,0,0,0,0,0,0,0,0,0,0,0,0,0,0,0,0,0,0,0,0,0,0,0,0,0,0,0,0,0,0,0,0,0,0,0,-2.1599,-2.16,0,-2.1693,-2.1694,-2.1695,-2.1628,-2.1625,-2.1622,-2.162,-2.1717,-2.1723,-2.1728,0,0,0,0,0,0,0,0,0,0,0,0,0,-2.1361,-2.1366,-2.1599,-2.16,-2.1601,-2.1693,-2.1694,-2.1696,-2.1629,-2.1625,-2.1622,-2.1618,-2.1716,-2.1722,-2.1728,0,0,0,0,0,0,0,0,0,0,0,0,0,-2.1461,-2.1368,-2.1599,-2.1579,-2.1578,-2.1693,-2.1694,-2.1696,-2.163,-2.1625,-2.1621,-2.1616,-2.1713,-2.1721,-2.1729,-2.1869,0,0,-2.1754,-2.1757,0,0,0,0,0,0,0,0,-2.1456,-2.147,-2.1581,-2.1581,-2.158,-2.1644,-2.1646,-2.1754,-2.1631,-2.161,-2.1619,-2.1614,-2.1697,-2.1706,-2.1734,-2.1873,-2.1878,-2.1755,-2.176,-2.1763,-2.1765,0,0,0,0,0,0,0,-2.1449,-2.1465,-2.1636,-2.1583,-2.1582,-2.1565,-2.1575,-2.1666,-2.1678,-2.1612,-2.1607,-2.1619,-2.1696,-2.1726,-2.1735,-2.1879,-2.1754,-2.1762,-2.1767,-2.177,-2.2137,-2.2142,0,0,0,0,0,0,-2.1443,-2.146,-2.1633,-2.1639,-2.1505,-2.1573,-2.1584,-2.1628,-2.1676,-2.1679,-2.1623,-2.1615,-2.1714,-2.1726,-2.1739,-2.1905,-2.1763,-2.1771,-2.1775,-2.2132,-2.2138,-2.2143,0,0,0,0,0,0,-2.1439,-2.146,-2.163,-2.1548,-2.1569,-2.1582,-2.1633,-2.1633,-2.1663,-2.1685,-2.1686,-2.1652,-2.1711,-2.1727,-2.1837,-2.1908,-2.1774,-2.1782,-2.2126,-2.2134,-2.2141,-2.224,0,0,0,0,0,0,-2.1432,-2.1458,-2.1512,-2.155,-2.1573,-2.1727,-2.1637,-2.1638,-2.1677,-2.1668,-2.1712,-2.1715,-2.1709,-2.1825,-2.1845,-2.1916,-2.1788,-2.212,-2.213,-2.2139,-2.2231,-2.225,-2.2266,0,0,0,0,0,-2.1424,-2.1536,-2.1515,-2.1536,-2.1641,-2.1731,-2.1744,-2.1734,-2.1683,-2.1736,-2.175,-2.1714,-2.1896,-2.1837,-2.1858,-2.1934,-2.2116,-2.2127,-2.2138,-2.2222,-2.2246,-2.2266,0,0,0,0,0,0,-2.1507,-2.1541,-2.1518,-2.1646,-2.1686,-2.1719,-2.1787,-2.176,-2.1816,-2.1806,-2.1791,-2.1801,-2.1916,-2.1935,-2.1869,-2.2071,-2.1998,-2.2014,-2.2055,-2.2077,-2.2095,-2.2089,-2.1795,0,0,0,0,0,-2.154,-2.1611,-2.1636,-2.1747,-2.1768,-2.1774,-2.1813,-2.1802,-2.1843,-2.186,-2.1882,-2.1923,-2.1989,-2.2034,-2.2096,-2.2232,-2.224,-2.2294,-2.2312,-2.2326,-2.2341,-2.2414,-2.2438,-2.218,-2.218,-2.2179,0,0,-2.161,-2.1637,-2.1683,-2.1765,-2.1794,-2.1868,-2.1789,-2.187,-2.1925,-2.1872,-2.1977,-2.1994,-2.204,-2.2163,-2.2218,-2.2182,-2.2414,-2.234,-2.2352,-2.2359,-2.2428,-2.2452,-2.2474,-2.2187,-2.2186,-2.2185,0,0,-2.1775,-2.1802,-2.1897,-2.1928,-2.1973,-2.1976,-2.1999,-2.2036,-2.2046,-2.215,-2.2112,-2.2176,-2.2291,-2.2325,-2.2357,-2.2531,-2.25,-2.2552,-2.2647,-2.2718,-2.2738,-2.2756,-2.282,-2.2842,-2.2566,-2.2566,-2.2566,0,-2.1856,-2.1965,-2.195,-2.2034,-2.2071,-2.2025,-2.2121,-2.2152,-2.2216,-2.2242,-2.22,-2.2343,-2.237,-2.25,-2.2543,-2.257,-2.2595,-2.2548,-2.2736,-2.2754,-2.2771,-2.2831,-2.2855,-2.2572,-2.2572,-2.2571,-2.257,0,-2.2063,-2.2139,-2.221,-2.2272,-2.2317,-2.2407,-2.2405,-2.2452,-2.2435,-2.2443,-2.2549,-2.2579,-2.2647,-2.2676,-2.2662,-2.2805,-2.2781,-2.2738,-2.2665,-2.2802,-2.2858,-2.2881,-2.2581,-2.2579,-2.2577,-2.2575,0,0,-2.2286,-2.2337,-2.2363,-2.2391,-2.2436,-2.2495,-2.2581,-2.2647,-2.2688,-2.2732,-2.2805,-2.2902,-2.2862,-2.2898,-2.2886,-2.2949,-2.3086,-2.2898,-2.2899,-2.2933,-2.3245,-2.3279,-2.3306,-2.3064,-2.3068,-2.3071,-2.3242,0,-2.2455,-2.2607,-2.2594,-2.2738,-2.2808,-2.2763,-2.2839,-2.2875,-2.2883,-2.2943,-2.2952,-2.3021,-2.2963,-2.2985,-2.3044,-2.3057,-2.3148,-2.3044,-2.3132,-2.3136,-2.3125,-2.3335,-2.3371,-2.353,-2.3263,-2.3267,-2.327,0,-2.2672,-2.2724,-2.2874,-2.2908,-2.2937,-2.3005,-2.3063,-2.3121,-2.316,-2.3162,-2.3201,-2.3178,-2.3265,-2.3188,-2.3308,-2.3237,-2.3272,-2.3283,-2.3289,-2.3299,-2.3213,-2.3352,-2.3581,-2.3606,-2.3304,-2.3301,-2.3299,0,-2.2822,-2.2928,-2.3032,-2.3057,-2.3098,-2.3147,-2.3167,-2.3201,-2.3241,-2.3291,-2.3317,-2.3376,-2.341,-2.3457,-2.345,-2.3394,-2.3572,-2.3494,-2.3577,-2.3577,-2.3619,-2.3617,-2.3858,-2.3638,-2.3637,-2.3637,-2.3636,0,-2.3013,-2.3107,-2.31,-2.3164,-2.3268,-2.3252,-2.3355,-2.3368,-2.3399,-2.3465,-2.3429,-2.3492,-2.3478,-2.354,-2.3535,-2.3636,-2.365,-2.3654,-2.3652,-2.3659,-2.3659,-2.3684,-2.3673,-2.3643,-2.3642,-2.3641,-2.364,0,-2.3199,-2.3198,-2.3308,-2.3337,-2.3347,-2.3422,-2.3447,-2.3508,-2.3511,-2.3595,-2.3614,-2.362,-2.3691,-2.3688,-2.3769,-2.3765,-2.3889,-2.3873,-2.3876,-2.3874,-2.3957,-2.395,-2.4225,-2.426,-2.4015,-2.4017,-2.4019,0,-2.3322,-2.3393,-2.343,-2.3471,-2.3494,-2.3561,-2.36,-2.3586,-2.3629,-2.3678,-2.3732,-2.3799,-2.3853,-2.3968,-2.398,-2.4041,-2.4027,-2.4119,-2.4036,-2.404,-2.403,-2.4027,-2.4034,-2.4136,-2.4139,-2.4141,-2.4143,0,-2.3541,-2.3536,-2.3595,-2.3653,-2.3701,-2.3747,-2.3788,-2.3824,-2.3814,-2.3863,-2.3935,-2.3976,-2.4057,-2.4125,-2.4183,-2.4202,-2.4172,-2.4169,-2.4191,-2.42,-2.4199,-2.4202,-2.3923,-2.4163,-2.4161,-2.416,-2.4159,-2.4158,-2.3701,-2.3762,-2.3797,-2.3863,-2.3892,-2.3931,-2.3989,-2.3999,-2.4059,-2.4124,-2.4111,-2.4191,-2.4227,-2.4301,-2.4326,-2.4388,-2.4356,-2.4388,-2.4397,-2.4406,-2.4416,-2.4187,-2.4399,-2.4398,-2.4398,-2.4397,-2.4397,0,-2.3919,-2.3939,-2.3999,-2.4058,-2.411,-2.4074,-2.4117,-2.4163,-2.4235,-2.427,-2.4322,-2.4404,-2.4469,-2.4485,-2.4546,-2.4593,-2.4581,-2.461,-2.4608,-2.4613,-2.4441,-2.4416,-2.4619,-2.4619,-2.4619,-2.4619,-2.4619,-2.4619,-2.4039,-2.4141,-2.414,-2.4255,-2.4273,-2.4352,-2.438,-2.4415,-2.4443,-2.4536,-2.4589,-2.4599,-2.4626,-2.4689,-2.4746,-2.4749,-2.4774,-2.481,-2.4808,-2.4647,-2.4625,-2.4604,-2.458,-2.4815,-2.4815,-2.4975,-2.4976,-2.4977]},{"header":{"parameterUnit":"m.s-1","parameterCategory":1,"la1":30.2991,"la2":30.254,"lo1":-89.0895,"lo2":-89.0444,"dy":0.0017,"dx":0.0017,"nx":28,"ny":28,"refTime":"2023-10-31T21:00:00:Z","depth":0,"parameterNumber":3,"parameterNumberName":"V-component_of_WINDS"},"data":[0,0,0,0,0,0,0,0,0,0,0,0,0,0,0,0,0,0,0,0,0,0,0,0,0,0,0,0,0,0,0,0,0,0,0,0,0,0,0,0,0,0,0,0,0,0,0,0,0,0,0,0,0,0,0,0,0,0,-8.9473,-8.9474,0,-8.9637,-8.9639,-8.9641,-8.9521,-8.9516,-8.9511,-8.9506,-8.9667,-8.9676,-8.9685,0,0,0,0,0,0,0,0,0,0,0,0,0,-8.9047,-8.9056,-8.9472,-8.9475,-8.9477,-8.9637,-8.9639,-8.9641,-8.9522,-8.9516,-8.951,-8.9504,-8.9664,-8.9675,-8.9686,0,0,0,0,0,0,0,0,0,0,0,0,0,-8.9224,-8.9058,-8.9472,-8.9437,-8.9435,-8.9636,-8.9639,-8.9642,-8.9524,-8.9516,-8.9508,-8.9501,-8.966,-8.9674,-8.9687,-8.9929,0,0,-8.9729,-8.9735,0,0,0,0,0,0,0,0,-8.9214,-8.9239,-8.944,-8.944,-8.9438,-8.9551,-8.9548,-8.9738,-8.9526,-8.949,-8.9506,-8.9497,-8.9634,-8.9649,-8.9697,-8.9937,-8.9944,-8.973,-8.9739,-8.9745,-8.9749,0,0,0,0,0,0,0,-8.9202,-8.9232,-8.9537,-8.9443,-8.9442,-8.941,-8.9426,-8.9583,-8.9604,-8.9492,-8.9484,-8.9506,-8.9632,-8.9684,-8.97,-8.9946,-8.973,-8.9742,-8.9751,-8.9756,-9.039,-9.0398,0,0,0,0,0,0,-8.9194,-8.9222,-8.9532,-8.9542,-8.9305,-8.9424,-8.9442,-8.9522,-8.9602,-8.9607,-8.9512,-8.95,-8.9665,-8.9684,-8.9705,-8.9993,-8.9745,-8.9757,-8.9765,-9.0381,-9.0392,-9.0401,0,0,0,0,0,0,-8.9185,-8.9223,-8.9525,-8.938,-8.9416,-8.944,-8.9531,-8.953,-8.9582,-8.9617,-8.9619,-8.9563,-8.9659,-8.9686,-8.9875,-8.9997,-8.9764,-8.9776,-9.0371,-9.0385,-9.0396,-9.0571,0,0,0,0,0,0,-8.9174,-8.922,-8.9315,-8.9383,-8.9425,-8.9695,-8.9538,-8.9539,-8.9607,-8.9592,-8.9665,-8.9669,-8.9655,-8.9855,-8.9888,-9.0012,-8.9787,-9.036,-9.0377,-9.0392,-9.0555,-9.0589,-9.0618,0,0,0,0,0,-8.9159,-8.9356,-8.932,-8.9358,-8.9544,-8.9703,-8.9726,-8.9708,-8.9618,-8.9711,-8.9733,-8.9667,-8.9978,-8.9875,-8.9912,-9.0041,-9.0352,-9.0372,-9.0391,-9.0541,-9.0582,-9.0617,0,0,0,0,0,0,-8.9299,-8.9365,-8.9325,-8.9552,-8.9623,-8.9682,-8.98,-8.9752,-8.9849,-8.983,-8.9801,-8.9819,-9.0017,-9.0047,-8.9931,-9.0278,-9.015,-9.0178,-9.0252,-9.0291,-9.0322,-9.031,-8.9798,0,0,0,0,0,-8.9357,-8.9484,-8.9532,-8.9727,-8.9765,-8.9777,-8.9845,-8.9825,-8.9897,-8.9925,-8.9961,-9.0031,-9.0144,-9.0219,-9.0325,-9.0558,-9.0571,-9.0665,-9.0696,-9.0722,-9.0746,-9.087,-9.0912,-9.0464,-9.0464,-9.0464,0,0,-8.9477,-8.9528,-8.9609,-8.9757,-8.9809,-8.9938,-8.9803,-8.9945,-9.0039,-8.9946,-9.0127,-9.0156,-9.0231,-9.0443,-9.0537,-9.0474,-9.0873,-9.0747,-9.0767,-9.0777,-9.0894,-9.0936,-9.0974,-9.0478,-9.0475,-9.0473,0,0,-8.9761,-8.9814,-8.9981,-9.0037,-9.0119,-9.0126,-9.0166,-9.0233,-9.0249,-9.043,-9.0363,-9.0472,-9.0669,-9.0725,-9.0779,-9.1083,-9.1025,-9.1118,-9.1283,-9.1404,-9.1439,-9.147,-9.1577,-9.1616,-9.1142,-9.1143,-9.1143,0,-8.9899,-9.0094,-9.0072,-9.022,-9.0286,-9.0209,-9.0377,-9.0431,-9.0543,-9.0589,-9.0517,-9.0761,-9.0806,-9.1029,-9.1103,-9.115,-9.1193,-9.111,-9.1436,-9.1467,-9.1495,-9.1597,-9.1638,-9.1153,-9.1152,-9.1151,-9.115,0,-9.0258,-9.0394,-9.0518,-9.0631,-9.071,-9.0867,-9.0867,-9.095,-9.0922,-9.0935,-9.1119,-9.1171,-9.1286,-9.1337,-9.1311,-9.1556,-9.1514,-9.144,-9.1311,-9.1549,-9.1645,-9.1684,-9.1169,-9.1165,-9.1162,-9.1159,0,0,-9.0637,-9.0736,-9.0782,-9.0831,-9.0916,-9.1018,-9.117,-9.1285,-9.1355,-9.1434,-9.1559,-9.1726,-9.1658,-9.1719,-9.1699,-9.1805,-9.2041,-9.1717,-9.1718,-9.1775,-9.2312,-9.2368,-9.2414,-9.2003,-9.201,-9.2016,-9.2306,0,-9.0925,-9.1194,-9.1178,-9.1429,-9.1552,-9.148,-9.1612,-9.1676,-9.1692,-9.1797,-9.1812,-9.1931,-9.1832,-9.1869,-9.1971,-9.1991,-9.2148,-9.197,-9.2117,-9.2122,-9.21,-9.2464,-9.2523,-9.2795,-9.2343,-9.2349,-9.2354,0,-9.1298,-9.1392,-9.1656,-9.1721,-9.1772,-9.1891,-9.1994,-9.2096,-9.2166,-9.2169,-9.2238,-9.22,-9.2349,-9.2217,-9.2422,-9.2301,-9.2359,-9.2378,-9.2388,-9.2401,-9.2253,-9.2486,-9.2881,-9.2921,-9.2412,-9.2408,-9.2403,0,-9.1547,-9.1739,-9.1922,-9.1966,-9.2047,-9.2132,-9.2169,-9.2231,-9.2301,-9.2389,-9.2433,-9.2537,-9.2595,-9.2675,-9.2664,-9.2568,-9.2872,-9.2738,-9.2877,-9.2878,-9.2945,-9.2941,-9.3354,-9.2983,-9.2983,-9.2982,-9.2981,0,-9.1871,-9.2035,-9.2035,-9.2147,-9.2327,-9.2306,-9.2484,-9.2511,-9.2567,-9.2681,-9.2624,-9.2731,-9.2711,-9.2817,-9.2809,-9.2979,-9.3005,-9.301,-9.3006,-9.3016,-9.3015,-9.3054,-9.3035,-9.2993,-9.299,-9.2988,-9.2986,0,-9.218,-9.2187,-9.2381,-9.2441,-9.246,-9.259,-9.264,-9.2744,-9.2755,-9.2899,-9.2932,-9.2947,-9.3069,-9.3067,-9.3205,-9.3199,-9.3408,-9.3382,-9.3386,-9.338,-9.3519,-9.3506,-9.3971,-9.4031,-9.3622,-9.3626,-9.3629,0,-9.2386,-9.2511,-9.2585,-9.2658,-9.2701,-9.282,-9.2891,-9.2874,-9.2949,-9.3038,-9.3131,-9.3248,-9.3341,-9.3539,-9.3561,-9.3665,-9.3641,-9.3797,-9.3656,-9.3662,-9.3643,-9.3636,-9.3647,-9.3825,-9.3829,-9.3833,-9.3836,0,-9.2751,-9.2748,-9.2854,-9.2961,-9.3048,-9.3131,-9.3206,-9.3269,-9.326,-9.3347,-9.3472,-9.3545,-9.3686,-9.3802,-9.3903,-9.3936,-9.3885,-9.388,-9.3918,-9.3929,-9.3925,-9.3928,-9.346,-9.387,-9.3866,-9.3864,-9.3862,-9.3861,-9.3015,-9.3122,-9.3191,-9.331,-9.3365,-9.3437,-9.3539,-9.3562,-9.3667,-9.3783,-9.3765,-9.3905,-9.3969,-9.4099,-9.4142,-9.4249,-9.4194,-9.4248,-9.4262,-9.4276,-9.4291,-9.3909,-9.4267,-9.4266,-9.4265,-9.4264,-9.4264,0,-9.3376,-9.3417,-9.3527,-9.3636,-9.3729,-9.3674,-9.3754,-9.3835,-9.396,-9.4025,-9.4118,-9.4261,-9.4373,-9.4404,-9.4511,-9.459,-9.4569,-9.4619,-9.4613,-9.4621,-9.4335,-9.4292,-9.4635,-9.4634,-9.4634,-9.4634,-9.4634,-9.4634,-9.3575,-9.3753,-9.3758,-9.3962,-9.4,-9.4139,-9.4189,-9.4254,-9.4307,-9.447,-9.4564,-9.4583,-9.4634,-9.4744,-9.4844,-9.4849,-9.4891,-9.4951,-9.4947,-9.4679,-9.4642,-9.4606,-9.4565,-9.496,-9.4961,-9.5224,-9.5227,-9.5229]}]]